TimeCST,TemperatureF,Dew PointF,Humidity,Sea Level PressureIn,VisibilityMPH,Wind Direction,Wind SpeedMPH,Gust SpeedMPH,PrecipitationIn,Events,Conditions,WindDirDegrees,DateUTC
12:02 AM,51.8,48.2,88,29.90,10.0,NW,23.0,33.4,N/A,,Overcast,310,2012-12-29 06:02:00
12:53 AM,48.9,46.0,90,29.94,10.0,NW,17.3,26.5,N/A,,Overcast,320,2012-12-29 06:53:00
1:17 AM,48.2,44.6,87,29.95,10.0,NW,20.7,29.9,N/A,,Overcast,320,2012-12-29 07:17:00
1:33 AM,48.2,42.8,82,29.95,10.0,NW,17.3,27.6,N/A,,Overcast,320,2012-12-29 07:33:00
1:53 AM,48.0,43.0,83,29.96,10.0,NW,18.4,25.3,N/A,,Overcast,310,2012-12-29 07:53:00
2:32 AM,46.4,42.8,87,29.98,10.0,NW,17.3,21.9,N/A,,Overcast,320,2012-12-29 08:32:00
2:40 AM,46.4,42.8,87,29.98,10.0,NW,15.0,21.9,N/A,,Overcast,320,2012-12-29 08:40:00
2:53 AM,46.9,41.0,80,29.99,10.0,NW,18.4,27.6,N/A,,Overcast,320,2012-12-29 08:53:00
3:53 AM,46.0,39.9,79,30.02,10.0,NW,13.8,21.9,N/A,,Overcast,320,2012-12-29 09:53:00
4:53 AM,43.0,37.9,82,30.06,10.0,NNW,17.3,-,N/A,,Overcast,330,2012-12-29 10:53:00
5:53 AM,43.0,37.0,80,30.10,10.0,NNW,15.0,23.0,N/A,,Overcast,330,2012-12-29 11:53:00
6:53 AM,42.1,37.0,82,30.13,10.0,NNW,12.7,-,N/A,,Overcast,340,2012-12-29 12:53:00
7:53 AM,42.1,36.0,79,30.16,10.0,NNW,13.8,-,N/A,,Overcast,330,2012-12-29 13:53:00
8:53 AM,44.1,36.0,73,30.20,10.0,NNW,15.0,20.7,N/A,,Overcast,330,2012-12-29 14:53:00
9:53 AM,45.0,35.1,68,30.21,10.0,NW,17.3,23.0,N/A,,Mostly Cloudy,320,2012-12-29 15:53:00
10:53 AM,45.0,35.1,68,30.23,10.0,NW,16.1,21.9,N/A,,Mostly Cloudy,310,2012-12-29 16:53:00
11:34 AM,46.4,33.8,62,30.21,10.0,NW,16.1,25.3,N/A,,Mostly Cloudy,320,2012-12-29 17:34:00
11:53 AM,45.0,33.1,63,30.21,10.0,NW,15.0,25.3,N/A,,Mostly Cloudy,320,2012-12-29 17:53:00
12:00 PM,44.6,33.8,66,30.21,10.0,NW,15.0,21.9,N/A,,Partly Cloudy,320,2012-12-29 18:00:00
12:53 PM,46.0,34.0,63,30.19,10.0,NW,16.1,21.9,N/A,,Partly Cloudy,310,2012-12-29 18:53:00
1:53 PM,48.0,33.1,56,30.19,10.0,NW,10.4,-,N/A,,Clear,320,2012-12-29 19:53:00
2:53 PM,50.0,34.0,54,30.20,10.0,WNW,11.5,-,N/A,,Clear,300,2012-12-29 20:53:00
3:53 PM,48.9,32.0,52,30.22,10.0,NW,15.0,-,N/A,,Clear,310,2012-12-29 21:53:00
4:53 PM,46.0,32.0,58,30.25,10.0,NW,8.1,-,N/A,,Clear,310,2012-12-29 22:53:00
5:53 PM,43.0,30.9,62,30.27,10.0,NW,6.9,-,N/A,,Clear,320,2012-12-29 23:53:00
6:53 PM,42.1,30.9,65,30.30,10.0,NW,5.8,-,N/A,,Clear,310,2012-12-30 00:53:00
7:53 PM,41.0,28.9,62,30.35,10.0,NNW,10.4,-,N/A,,Clear,330,2012-12-30 01:53:00
8:53 PM,39.0,28.9,67,30.36,10.0,NNW,6.9,-,N/A,,Clear,330,2012-12-30 02:53:00
9:53 PM,36.0,28.9,76,30.39,10.0,NNW,5.8,-,N/A,,Clear,340,2012-12-30 03:53:00
10:53 PM,37.0,28.0,70,30.40,10.0,North,8.1,-,N/A,,Clear,350,2012-12-30 04:53:00
11:53 PM,35.1,27.0,72,30.40,10.0,North,8.1,-,N/A,,Clear,350,2012-12-30 05:53:00